[[{"header":{"parameterUnit":"m.s-1","parameterCategory":1,"la1":30.2991,"la2":30.254,"lo1":-89.0895,"lo2":-89.0444,"dy":0.0017,"dx":0.0017,"nx":28,"ny":28,"refTime":"2024-09-29T09:00:00:Z","depth":0,"parameterNumber":2,"parameterNumberName":"U-component_of_WINDS"},"data":[0,0,0,0,0,0,0,0,0,0,0,0,0,0,0,0,0,0,0,0,0,0,0,0,0,0,0,0,0,0,0,0,0,0,0,0,0,0,0,0,0,0,0,0,0,0,0,0,0,0,0,0,0,0,0,0,0,0,2.6336,2.6337,0,2.6421,2.6422,2.6423,2.6366,2.6363,2.6361,2.6358,2.6445,2.645,2.6454,0,0,0,0,0,0,0,0,0,0,0,0,0,2.6125,2.6129,2.6336,2.6337,2.6338,2.642,2.6422,2.6423,2.6366,2.6363,2.636,2.6357,2.6444,2.6449,2.6455,0,0,0,0,0,0,0,0,0,0,0,0,0,2.6214,2.613,2.6336,2.632,2.632,2.642,2.6422,2.6423,2.6367,2.6363,2.6359,2.6356,2.6442,2.6449,2.6456,2.6577,0,0,2.6477,2.648,0,0,0,0,0,0,0,0,2.6209,2.6221,2.6321,2.6321,2.6321,2.6379,2.6379,2.6475,2.6368,2.6349,2.6358,2.6354,2.6426,2.6434,2.6459,2.6581,2.6585,2.6478,2.6482,2.6485,2.6487,0,0,0,0,0,0,0,2.6202,2.6217,2.637,2.6323,2.6323,2.6308,2.6316,2.6397,2.6408,2.635,2.6347,2.6357,2.6425,2.6452,2.646,2.6586,2.6478,2.6484,2.6488,2.6491,2.6808,2.6812,0,0,0,0,0,0,2.6198,2.6213,2.6367,2.6372,2.6254,2.6315,2.6324,2.6364,2.6407,2.641,2.636,2.6354,2.6442,2.6452,2.6463,2.6605,2.6485,2.6492,2.6496,2.6804,2.6809,2.6813,0,0,0,0,0,0,2.6193,2.6212,2.6364,2.6291,2.6309,2.6323,2.6368,2.6368,2.6394,2.6415,2.6417,2.6386,2.6439,2.6453,2.6548,2.6608,2.6495,2.6501,2.6799,2.6805,2.6811,2.6892,0,0,0,0,0,0,2.6188,2.6211,2.6258,2.6293,2.6314,2.6448,2.6372,2.6372,2.6407,2.6399,2.6439,2.6442,2.6437,2.6538,2.6555,2.6615,2.6507,2.6794,2.6802,2.6809,2.6884,2.69,2.6914,0,0,0,0,0,2.618,2.6278,2.626,2.6279,2.6372,2.6452,2.6463,2.6456,2.6412,2.6458,2.6471,2.6441,2.6598,2.6548,2.6567,2.663,2.679,2.6799,2.6808,2.6877,2.6897,2.6914,0,0,0,0,0,0,2.6251,2.6283,2.6263,2.6376,2.6411,2.6442,2.6501,2.6478,2.6527,2.6518,2.6507,2.6516,2.6615,2.6632,2.6575,2.6748,2.6687,2.6701,2.6733,2.6752,2.6767,2.676,2.6513,0,0,0,0,0,2.6279,2.6341,2.6365,2.6462,2.6481,2.6488,2.6522,2.6513,2.6549,2.6564,2.6584,2.662,2.6677,2.6716,2.677,2.6887,2.6893,2.6939,2.6954,2.6966,2.6978,2.7038,2.7058,2.6844,2.6844,2.6844,0,0,2.6339,2.6364,2.6404,2.6477,2.6503,2.6566,2.6501,2.6571,2.6618,2.6575,2.6665,2.6681,2.672,2.6826,2.6873,2.6843,2.7038,2.6978,2.6988,2.6993,2.7049,2.7069,2.7087,2.685,2.6849,2.6848,0,0,2.6479,2.6506,2.6587,2.6615,2.6655,2.6658,2.6678,2.6712,2.672,2.681,2.6779,2.6833,2.6934,2.6962,2.699,2.7138,2.7111,2.7156,2.7234,2.7292,2.7309,2.7324,2.7374,2.7393,2.7168,2.7168,2.7168,0,2.6548,2.6643,2.6632,2.6704,2.6736,2.6699,2.6781,2.6808,2.6865,2.6887,2.6853,2.6975,2.7,2.7109,2.7145,2.717,2.719,2.7151,2.7308,2.7322,2.7336,2.7384,2.7403,2.7173,2.7172,2.7172,2.7171,0,2.6724,2.679,2.6851,2.6905,2.6944,2.7021,2.702,2.7061,2.7048,2.7055,2.7145,2.7173,2.723,2.7256,2.7245,2.7364,2.7344,2.7309,2.7247,2.7362,2.7406,2.7425,2.718,2.7178,2.7177,2.7176,0,0,2.6913,2.6958,2.698,2.7003,2.7043,2.7094,2.7168,2.7223,2.7257,2.7297,2.7357,2.7441,2.7408,2.7439,2.7431,2.7482,2.7594,2.7441,2.7441,2.7466,2.7724,2.7748,2.777,2.7577,2.758,2.7583,2.7719,0,2.7054,2.7182,2.7174,2.7294,2.7353,2.7318,2.7382,2.7413,2.7421,2.7471,2.748,2.7538,2.7492,2.751,2.7559,2.757,2.7645,2.756,2.7631,2.7634,2.7621,2.7794,2.7821,2.7948,2.7737,2.774,2.7742,0,2.7236,2.728,2.7406,2.7435,2.7459,2.7517,2.7565,2.7615,2.7649,2.765,2.7684,2.7666,2.7739,2.7676,2.7775,2.7717,2.7745,2.7755,2.776,2.7765,2.7694,2.7802,2.7989,2.8007,2.777,2.7768,2.7766,0,2.7358,2.7449,2.7535,2.7556,2.7592,2.7633,2.765,2.768,2.7713,2.7755,2.7776,2.7827,2.7855,2.7894,2.7889,2.7844,2.7989,2.7926,2.7991,2.7991,2.8022,2.802,2.8215,2.8044,2.8043,2.8043,2.8043,0,2.7515,2.7593,2.759,2.7643,2.7728,2.7717,2.7802,2.7814,2.7841,2.7894,2.7867,2.7918,2.791,2.7961,2.7958,2.8038,2.8052,2.8054,2.8052,2.8055,2.8055,2.8073,2.8063,2.8048,2.8047,2.8046,2.8045,0,2.7666,2.7667,2.7758,2.7784,2.7792,2.7854,2.7876,2.7925,2.793,2.7998,2.8013,2.802,2.8078,2.8077,2.8144,2.8142,2.824,2.8229,2.8229,2.8226,2.8289,2.8282,2.8501,2.8528,2.8341,2.8343,2.8345,0,2.7765,2.7824,2.7856,2.789,2.7909,2.7964,2.7997,2.7987,2.8022,2.8063,2.8107,2.8162,2.8206,2.8299,2.831,2.836,2.8348,2.8422,2.8356,2.8356,2.8347,2.8342,2.8347,2.8434,2.8436,2.8438,2.8439,0,2.7942,2.7938,2.7987,2.8035,2.8074,2.8112,2.8146,2.8175,2.8169,2.8209,2.8268,2.8301,2.8367,2.8422,2.8469,2.8485,2.8461,2.846,2.8477,2.8481,2.8477,2.8477,2.8262,2.8455,2.8453,2.8452,2.8451,2.8451,2.8068,2.8118,2.8147,2.82,2.8225,2.8257,2.8303,2.8313,2.8361,2.8414,2.8405,2.847,2.8499,2.856,2.858,2.863,2.8604,2.8629,2.8635,2.8641,2.8647,2.847,2.8639,2.8638,2.8638,2.8637,2.8637,0,2.8241,2.8257,2.8307,2.8355,2.8396,2.8369,2.8405,2.8441,2.8498,2.8527,2.857,2.8635,2.8687,2.8701,2.875,2.8787,2.8776,2.88,2.8796,2.88,2.8669,2.8648,2.8807,2.8807,2.8807,2.8807,2.8807,2.8807,2.8336,2.8417,2.8417,2.8508,2.8524,2.8586,2.8609,2.8637,2.866,2.8734,2.8776,2.8785,2.8807,2.8857,2.8903,2.8905,2.8924,2.8951,2.8949,2.8826,2.8809,2.8793,2.8773,2.8956,2.8956,2.9075,2.9076,2.9077]},{"header":{"parameterUnit":"m.s-1","parameterCategory":1,"la1":30.2991,"la2":30.254,"lo1":-89.0895,"lo2":-89.0444,"dy":0.0017,"dx":0.0017,"nx":28,"ny":28,"refTime":"2024-09-29T09:00:00:Z","depth":0,"parameterNumber":3,"parameterNumberName":"V-component_of_WINDS"},"data":[0,0,0,0,0,0,0,0,0,0,0,0,0,0,0,0,0,0,0,0,0,0,0,0,0,0,0,0,0,0,0,0,0,0,0,0,0,0,0,0,0,0,0,0,0,0,0,0,0,0,0,0,0,0,0,0,0,0,1.8011,1.8011,0,1.8076,1.8077,1.8078,1.806,1.8059,1.8058,1.8057,1.8122,1.8124,1.8127,0,0,0,0,0,0,0,0,0,0,0,0,0,1.7867,1.787,1.8011,1.8012,1.8012,1.8076,1.8077,1.8078,1.8061,1.8059,1.8057,1.8056,1.8121,1.8124,1.8128,0,0,0,0,0,0,0,0,0,0,0,0,0,1.7931,1.7871,1.8011,1.8012,1.8012,1.8076,1.8077,1.8078,1.8061,1.8059,1.8057,1.8055,1.8119,1.8124,1.8128,1.8194,0,0,1.8142,1.8143,0,0,0,0,0,0,0,0,1.7927,1.7936,1.8011,1.8012,1.8012,1.8058,1.805,1.8117,1.8061,1.8042,1.8057,1.8054,1.8102,1.8108,1.8124,1.8197,1.82,1.8142,1.8145,1.8146,1.8148,0,0,0,0,0,0,0,1.7923,1.7933,1.8036,1.8012,1.8013,1.8007,1.8014,1.8063,1.8082,1.8044,1.8043,1.8051,1.8102,1.812,1.8125,1.8201,1.8142,1.8146,1.8148,1.815,1.8328,1.833,0,0,0,0,0,0,1.7918,1.793,1.8034,1.8038,1.7964,1.8012,1.8019,1.8045,1.8082,1.8085,1.8052,1.805,1.8113,1.812,1.8128,1.8206,1.8146,1.8151,1.8153,1.8326,1.8328,1.8331,0,0,0,0,0,0,1.7915,1.7928,1.8032,1.7984,1.7997,1.8016,1.8046,1.8048,1.8066,1.8088,1.8091,1.8067,1.8112,1.8121,1.8177,1.8208,1.8153,1.8157,1.8323,1.8327,1.833,1.8363,0,0,0,0,0,0,1.7911,1.7927,1.7953,1.7985,1.7999,1.8082,1.8048,1.805,1.8073,1.8071,1.8103,1.8106,1.8111,1.8171,1.8181,1.8213,1.816,1.8321,1.8325,1.8329,1.8359,1.8367,1.8373,0,0,0,0,0,1.7906,1.796,1.7955,1.7967,1.8033,1.8083,1.8092,1.8097,1.8076,1.8102,1.8116,1.8105,1.8202,1.8176,1.8189,1.8222,1.8319,1.8324,1.8328,1.8356,1.8365,1.8373,0,0,0,0,0,0,1.7932,1.7964,1.7959,1.8025,1.8051,1.808,1.8114,1.8107,1.814,1.8136,1.814,1.8147,1.8203,1.8218,1.8189,1.8286,1.8257,1.8265,1.8274,1.8283,1.829,1.8285,1.8164,0,0,0,0,0,1.7945,1.7985,1.801,1.8066,1.808,1.8094,1.8117,1.8118,1.8145,1.8157,1.8175,1.8201,1.8237,1.8261,1.8296,1.8361,1.8366,1.8389,1.8396,1.8402,1.8408,1.8441,1.8451,1.8346,1.8346,1.8346,0,0,1.7974,1.7996,1.8021,1.8072,1.8093,1.8132,1.8104,1.8147,1.8176,1.8163,1.8216,1.823,1.826,1.832,1.8347,1.8334,1.8438,1.8408,1.8412,1.8415,1.8447,1.8457,1.8465,1.8349,1.8349,1.8348,0,0,1.8045,1.8067,1.8114,1.8135,1.8167,1.8176,1.8187,1.8217,1.8225,1.8279,1.8269,1.8302,1.8366,1.8386,1.8405,1.8481,1.8471,1.8492,1.8529,1.8561,1.8569,1.8576,1.8601,1.8611,1.8498,1.8498,1.8498,0,1.8076,1.8136,1.814,1.8183,1.8205,1.8194,1.8242,1.8262,1.8303,1.8317,1.8302,1.8378,1.8398,1.8461,1.8479,1.8496,1.8507,1.8488,1.8567,1.8575,1.8582,1.8606,1.8616,1.85,1.85,1.8499,1.8499,0,1.8171,1.8212,1.8246,1.8286,1.8312,1.8357,1.8366,1.8391,1.839,1.8399,1.8453,1.8475,1.8513,1.8528,1.8527,1.8591,1.8581,1.8566,1.8538,1.8594,1.8616,1.8626,1.8503,1.8502,1.8502,1.8501,0,0,1.8262,1.8302,1.8314,1.8331,1.8364,1.8395,1.8438,1.8475,1.8496,1.8524,1.8559,1.8611,1.8597,1.8618,1.8619,1.8647,1.8703,1.8629,1.863,1.8641,1.8772,1.8783,1.8793,1.8697,1.8699,1.8701,1.8769,0,1.8335,1.8413,1.8416,1.8486,1.8523,1.8512,1.8549,1.8572,1.8582,1.8613,1.8623,1.866,1.8639,1.8652,1.8679,1.8691,1.873,1.8686,1.8729,1.873,1.8721,1.8806,1.8817,1.8881,1.8778,1.878,1.8781,0,1.8432,1.8462,1.8535,1.856,1.8576,1.861,1.8642,1.8673,1.8698,1.8703,1.8725,1.8721,1.8763,1.8733,1.8791,1.8761,1.8778,1.8786,1.8789,1.8793,1.8759,1.8811,1.8902,1.8911,1.8795,1.8794,1.8793,0,1.8489,1.8548,1.8599,1.8614,1.8645,1.8668,1.8682,1.8705,1.8726,1.8754,1.8768,1.88,1.8818,1.8843,1.8847,1.8825,1.8904,1.8874,1.8907,1.8907,1.8925,1.8923,1.9019,1.8937,1.8937,1.8937,1.8936,0,1.857,1.8615,1.8625,1.8656,1.8705,1.8708,1.8756,1.8768,1.8788,1.882,1.8812,1.8842,1.8846,1.8877,1.888,1.8926,1.8934,1.8938,1.8938,1.8938,1.8938,1.8949,1.8945,1.8939,1.8939,1.8938,1.8938,0,1.8643,1.8652,1.8706,1.873,1.8737,1.8772,1.8792,1.8821,1.8828,1.8869,1.8878,1.889,1.8926,1.8932,1.8974,1.8976,1.903,1.9026,1.9022,1.9021,1.9053,1.9049,1.9159,1.9173,1.9083,1.9083,1.9084,0,1.8694,1.8728,1.8755,1.8776,1.8791,1.8825,1.8846,1.8849,1.8871,1.89,1.8925,1.8959,1.8987,1.9043,1.9055,1.9086,1.9082,1.9118,1.9087,1.9085,1.9081,1.9079,1.9081,1.9125,1.9126,1.9126,1.9127,0,1.8783,1.8785,1.8816,1.8848,1.8873,1.8898,1.8922,1.894,1.8945,1.897,1.9006,1.9027,1.9068,1.9102,1.9132,1.9145,1.9136,1.9137,1.9146,1.9146,1.9141,1.9143,1.9037,1.9134,1.9134,1.9133,1.9133,1.9132,1.8846,1.8874,1.8897,1.8931,1.8949,1.8971,1.8999,1.9009,1.904,1.9074,1.9073,1.9112,1.9133,1.9173,1.9187,1.9216,1.9205,1.9218,1.9221,1.9224,1.9227,1.9137,1.9222,1.9222,1.9222,1.9221,1.9221,0,1.8933,1.8947,1.8978,1.9011,1.9037,1.9027,1.9052,1.9074,1.9108,1.9129,1.9156,1.9195,1.9227,1.924,1.9271,1.9292,1.9288,1.9299,1.9298,1.93,1.9236,1.9225,1.9301,1.9301,1.9301,1.9301,1.9301,1.9301,1.8982,1.9029,1.9033,1.9088,1.9102,1.914,1.9154,1.9174,1.919,1.9235,1.9261,1.9269,1.9286,1.9318,1.9345,1.9348,1.9359,1.9372,1.9373,1.9313,1.9305,1.9297,1.9286,1.9375,1.9375,1.9434,1.9435,1.9435]}]]